SCATSLLP

Guest
Details From SCAT - Desierto De Atacama
To SLLP - La Paz
Flight Number -
Tags Generated
Created
Modified
Stats Distance 661 nm / 1,225 km
Max Altitude 0 ft / 0 m
Waypoints 3
Social Downloads 1
Likes 0
Share VATSIM

Download

Looking for another format? Having issues loading an existing format? Contact us
Advertisement - Login to hide

Notes

Generated

Route

SCAT R2450 SLLP

ID Type Via Altitude Latitude Longitude Leg Dist Tot Dist Heading (true) Name
O SCAT APT - 0 ft / 0 m -27.25139˚ -70.78012˚ - 0 nm - -
R2450 FIX - 0 ft / 0 m -16.51274˚ -68.21098˚ 660 nm 660 nm 13° / 12° -
O SLLP APT - 0 ft / 0 m -16.50414˚ -68.19836˚ 0 nm 661 nm 55° / 55° -

Altitude Profile

Advertisement - Login to hide

Weather


0- 5 10 15 20 25 30 35+ Temperature / ° C

Clouds and Precipitation
Forecast for 2018-05-21 06:00 UTC. Updated 2 hours ago

Ground ~20,000 ft ~40,000 ft Winds

SCAT

Details ICAO SCAT
Name DESIERTO DE ATACAMA
Region Chile
Timezone America/Santiago (UTC-4.0)
Stats Elevation 670 ft / 204 m (AMSL)
Location -27.261246° -70.779220°
Runways 1
Magnetic Variation 1.512° W

METAR

SCAT 210700Z AUTO VRB02KT 9999 // ///013 14/10 Q1017

Decode

TAF

TAF SCAT 210430Z 2106/2206 10004KT 9999 OVC013 TN13/2106Z TX18/2118Z BECMG 2111/2113 17004KT OVC018 BECMG 2117/2119 30008KT CAVOK BECMG 2122/2124 10004KT BECMG 2201/2203 35004KT OVC015

Decode

Departure Runways

ID Width Length Bearing (true) Bearing (mag) Surface Threshold Offset Overrun Length
17 148 ft / 45 m 7,214 ft / 2,199 m 175.35° 176.86° Asphalt 0 ft / 0 m 195 ft / 59 m
35 148 ft / 45 m 7,214 ft / 2,199 m 355.35° 356.86° Asphalt 0 ft / 0 m 195 ft / 59 m

SLLP

Details ICAO SLLP (LPB)
Name La Paz
Region Bolivia
Timezone America/La_Paz (UTC-4.0)
Stats Elevation 13,313 ft / 4,058 m (AMSL)
Location -16.509356° -68.190551°
Runways 2
Magnetic Variation 7.999° W

METAR

SLLP 210700Z 01006KT 9999 NSC 02/M12 Q1036

Decode

TAF

TAF SLLP 210500Z 2106/2206 02005KT 9999 NSC TX17/2120Z TNM05/2110Z PROB30 TEMPO 2107/2110 08006KT 3000E VCFG FEW002 BECMG 2114/2116 26010KT TEMPO 2119/2122 34012KT

Decode

Destination Runways

ID Width Length Bearing (true) Bearing (mag) Surface Threshold Offset Overrun Length
10 151 ft / 46 m 13,106 ft / 3,995 m 91.90° 99.90° Concrete 0 ft / 0 m 200 ft / 61 m
10L 300 ft / 91 m 6,718 ft / 2,048 m 97.72° 105.72° Dirt 0 ft / 0 m 0 ft / 0 m
28 151 ft / 46 m 13,106 ft / 3,995 m 271.89° 279.89° Concrete 0 ft / 0 m 0 ft / 0 m
28R 300 ft / 91 m 6,718 ft / 2,048 m 277.71° 285.71° Dirt 0 ft / 0 m 0 ft / 0 m

Approach Navaids

Runway Type Ident Frequency Range Bearing (true) Bearing (mag) Slope Elevation
10 Localiser ILPA 110.30 MHz 18 nm / 33 km 91.89° 99.89° - 13,313 ft / 4,058 m (AMSL)
10 Glidescope ILPA 110.30 MHz 10 nm / 19 km 91.89° 99.89° 2.40° 13,313 ft / 4,058 m (AMSL)

Popular Alternatives